Back to catalog

STARLINK-36853

AliveCommunicationsVLEO
NORAD 68097·PAYLOAD·🇺🇸 United States

Launched Mar 4, 2026 from Vandenberg Space Force Base

Loading…

Next Passes (next 24 hours)

TLE

FreshSource: CelesTrak SupGP

Epoch: Sep 15, 2026, 03:44 UTC

1 68097C 26042AE  26258.15604167  .00062597  00000+0  18494-2 0  2581
2 68097  53.1602  14.7626 0001140  85.2937  86.2850 15.34360835    13

Track STARLINK-36853 in real time with AllMySat

Download on the App Store